Le nostre stazioni meteo in Italia

Pubblicità
Il mio iltempo24.it
Kielder Castle, Gran Bretagna (99186): Temperatura & dewpoint: 14.02.2017 15:00:00 - 20.02.2017 15:00:00 (GMT)Kielder Castle, Gran Bretagna (99186): Temperatura -20cm & Temperatura -100cm: 14.02.2017 15:00:00 - 20.02.2017 15:00:00 (GMT)Kielder Castle, Gran Bretagna (99186): precipitazioni: 14.02.2017 15:00:00 - 20.02.2017 15:00:00 (GMT)
Data & Tempo tt [°C] td [°C] tt -20cm [°C] tt -100cm [°C] rr [mm]
20.02.2017 15:00:00 10,3 6,3 - - 0,0
20.02.2017 14:00:00 11,4 8,4 - - 0,0
20.02.2017 13:00:00 11,1 9,2 - - 0,2
20.02.2017 12:00:00 10,5 9,8 - - 1,2
20.02.2017 11:00:00 9,6 8,9 - - 0,4
20.02.2017 10:00:00 9,3 8,8 - - 0,6
20.02.2017 09:00:00 9,1 8,7 5,7 5,0 0,0
20.02.2017 08:00:00 8,9 8,5 - - 0,0
20.02.2017 07:00:00 8,8 8,3 - - 0,0
20.02.2017 06:00:00 9,1 8,5 - - 0,0
20.02.2017 05:00:00 9,1 8,5 - - 0,0
20.02.2017 04:00:00 9,1 8,7 - - 0,2
20.02.2017 03:00:00 9,4 8,9 - - 0,0
20.02.2017 02:00:00 9,2 8,8 - - 0,2
20.02.2017 01:00:00 9,1 8,8 - - 0,0
20.02.2017 00:00:00 8,6 8,3 - - 0,0
19.02.2017 23:00:00 8,8 8,5 - - 0,0
19.02.2017 22:00:00 8,6 8,3 - - 0,0
19.02.2017 21:00:00 8,3 7,8 - - 0,0
19.02.2017 20:00:00 7,9 7,5 - - 0,0
19.02.2017 19:00:00 7,5 7,2 - - 0,0
19.02.2017 18:00:00 7,5 6,8 - - 0,0
19.02.2017 17:00:00 7,4 6,8 - - 0,0
19.02.2017 16:00:00 7,8 6,9 - - 0,0
19.02.2017 15:00:00 8,0 7,1 - - 0,0
19.02.2017 14:00:00 8,4 6,8 - - 0,0
19.02.2017 13:00:00 8,1 6,5 - - 0,0
19.02.2017 12:00:00 8,2 5,8 - - 0,0
19.02.2017 11:00:00 7,7 5,9 - - 0,0
19.02.2017 10:00:00 6,9 5,6 - - 0,0
19.02.2017 09:00:00 6,9 5,7 5,0 5,0 0,0
19.02.2017 08:00:00 6,3 5,3 - - 0,0
19.02.2017 07:00:00 6,6 5,4 - - 0,0
19.02.2017 06:00:00 6,4 5,2 - - 0,0
19.02.2017 05:00:00 6,3 5,2 - - 0,0
19.02.2017 04:00:00 6,3 5,1 - - 0,0
19.02.2017 03:00:00 6,2 5,0 - - 0,0
19.02.2017 02:00:00 6,5 4,9 - - 0,0
19.02.2017 01:00:00 6,6 5,3 - - 0,0
19.02.2017 00:00:00 6,9 5,4 - - 0,2
18.02.2017 23:00:00 7,0 5,9 - - 0,0
18.02.2017 22:00:00 7,3 6,1 - - 0,0
18.02.2017 21:00:00 7,3 6,4 - - 0,0
18.02.2017 20:00:00 7,2 6,4 - - 0,0
18.02.2017 19:00:00 7,5 6,8 - - 0,0
18.02.2017 18:00:00 7,7 7,4 - - 0,0
18.02.2017 17:00:00 7,6 7,3 - - 0,0
18.02.2017 16:00:00 8,0 7,4 - - 1,2
18.02.2017 15:00:00 8,1 7,4 - - 1,6
18.02.2017 14:00:00 8,4 7,6 - - 1,0
18.02.2017 13:00:00 8,2 7,5 - - 0,8
18.02.2017 12:00:00 8,3 7,3 - - 0,0
18.02.2017 11:00:00 8,2 7,2 - - 0,0
18.02.2017 10:00:00 8,0 6,9 - - 0,0
18.02.2017 09:00:00 8,0 7,1 4,7 4,9 0,2
18.02.2017 08:00:00 8,0 6,6 - - 0,0
18.02.2017 07:00:00 7,9 6,4 - - 0,0
18.02.2017 06:00:00 7,7 6,3 - - 0,0
18.02.2017 05:00:00 7,7 6,4 - - 0,0
18.02.2017 04:00:00 7,6 6,2 - - 0,0
18.02.2017 03:00:00 7,2 6,0 - - 0,0
18.02.2017 02:00:00 7,7 6,2 - - 0,0
18.02.2017 01:00:00 7,6 6,3 - - 0,0
18.02.2017 00:00:00 7,6 6,3 - - 0,0
17.02.2017 23:00:00 7,5 6,4 - - 0,0
17.02.2017 22:00:00 7,2 6,1 - - 0,0
17.02.2017 21:00:00 7,4 6,1 - - 0,0
17.02.2017 20:00:00 7,2 6,0 - - 0,0
17.02.2017 19:00:00 7,1 6,1 - - 0,0
17.02.2017 18:00:00 7,3 6,2 - - 0,0
17.02.2017 17:00:00 7,9 6,4 - - 0,0
17.02.2017 16:00:00 8,1 6,5 - - 0,0
17.02.2017 15:00:00 8,3 6,3 - - 0,0
17.02.2017 14:00:00 7,3 5,8 - - 0,0
17.02.2017 13:00:00 5,9 4,6 - - 0,0
17.02.2017 12:00:00 4,7 3,6 - - 0,0
17.02.2017 11:00:00 4,1 3,7 - - 0,0
17.02.2017 10:00:00 1,1 0,9 - - 0,0
17.02.2017 09:00:00 -0,5 -0,8 4,7 4,7 0,0
17.02.2017 08:00:00 -1,1 -1,3 - - 0,0
17.02.2017 07:00:00 -0,8 -1,0 - - 0,0
17.02.2017 06:00:00 -0,6 -0,9 - - 0,0
17.02.2017 05:00:00 0,4 0,2 - - 0,0
17.02.2017 04:00:00 2,0 1,9 - - 0,0
17.02.2017 03:00:00 1,5 1,4 - - 0,0
17.02.2017 02:00:00 1,2 1,0 - - 0,2
17.02.2017 01:00:00 1,2 0,7 - - 0,0
17.02.2017 00:00:00 2,2 1,6 - - 0,0
16.02.2017 23:00:00 3,8 3,3 - - 0,0
16.02.2017 22:00:00 4,6 3,3 - - 0,0
16.02.2017 21:00:00 6,0 4,2 - - 0,0
16.02.2017 20:00:00 6,2 4,7 - - 0,0
16.02.2017 19:00:00 6,9 5,3 - - 0,0
16.02.2017 18:00:00 7,0 5,5 - - 0,0
16.02.2017 17:00:00 7,0 5,6 - - 0,0
16.02.2017 16:00:00 7,1 5,9 - - 0,0
16.02.2017 15:00:00 6,9 5,7 - - 0,6
16.02.2017 14:00:00 7,5 5,2 - - 0,0
16.02.2017 13:00:00 7,6 4,8 - - 0,0
16.02.2017 12:00:00 7,4 5,1 - - 0,0
16.02.2017 11:00:00 6,8 4,5 - - 0,0
16.02.2017 10:00:00 6,2 4,7 - - 0,0
16.02.2017 09:00:00 5,4 4,1 4,4 4,7 0,0
16.02.2017 08:00:00 5,4 4,1 - - 0,2
16.02.2017 07:00:00 5,4 4,5 - - 0,0
16.02.2017 06:00:00 5,7 4,7 - - 0,0
16.02.2017 05:00:00 5,8 5,0 - - 0,0
16.02.2017 04:00:00 5,9 5,2 - - 0,0
16.02.2017 03:00:00 6,2 5,5 - - 0,0
16.02.2017 02:00:00 6,5 5,9 - - 0,6
16.02.2017 01:00:00 6,9 6,2 - - 1,0
16.02.2017 00:00:00 6,9 6,2 - - 0,4
15.02.2017 23:00:00 7,2 6,5 - - 0,0
15.02.2017 22:00:00 7,0 6,6 - - 0,8
15.02.2017 21:00:00 6,6 6,1 - - 1,4
15.02.2017 20:00:00 6,6 5,7 - - 0,6
15.02.2017 19:00:00 7,0 5,8 - - 0,0
15.02.2017 18:00:00 7,8 6,4 - - 0,2
15.02.2017 17:00:00 8,4 6,6 - - 0,0
15.02.2017 16:00:00 9,2 6,2 - - 0,0
15.02.2017 15:00:00 9,3 6,1 - - 0,0
15.02.2017 14:00:00 9,6 6,1 - - 0,0
15.02.2017 13:00:00 9,8 5,2 - - 0,0
15.02.2017 12:00:00 9,0 4,4 - - 0,0
15.02.2017 11:00:00 8,5 5,0 - - 0,0
15.02.2017 10:00:00 6,6 4,6 - - 0,0
15.02.2017 09:00:00 4,6 3,8 3,7 4,7 0,0
15.02.2017 08:00:00 4,3 3,4 - - 0,0
15.02.2017 07:00:00 4,2 3,4 - - 0,0
15.02.2017 06:00:00 4,2 3,4 - - 0,0
15.02.2017 05:00:00 4,1 3,2 - - 0,0
15.02.2017 04:00:00 4,0 3,2 - - 0,0
15.02.2017 03:00:00 4,0 3,0 - - 0,0
15.02.2017 02:00:00 4,0 2,9 - - 0,0
15.02.2017 01:00:00 4,0 2,7 - - 0,0
15.02.2017 00:00:00 3,9 2,6 - - 0,0
14.02.2017 23:00:00 3,9 2,4 - - 0,0
14.02.2017 22:00:00 4,1 2,4 - - 0,0
14.02.2017 21:00:00 4,2 2,3 - - 0,0
14.02.2017 20:00:00 4,2 2,2 - - 0,0
14.02.2017 19:00:00 4,3 1,9 - - 0,0
14.02.2017 18:00:00 4,4 1,7 - - 0,0
14.02.2017 17:00:00 4,4 1,4 - - 0,0
14.02.2017 16:00:00 5,2 1,3 - - 0,0
14.02.2017 15:00:00 5,6 1,4 - - 0,0

tt = Temperatura
td = dewpoint
tt -20cm = Temperatura -20cm
tt -100cm = Temperatura -100cm
rr = precipitazioni

Stazioni seguenti

WeatherPro
AMSI
MeteoEarth